Location: Ch�telard
(46.5017°N, 6.7036°E)
Time: 12:02:43
(UTC+00:00)

Daily predictions for brighter satellites

Satellite Brightness Start Highest point End
(mag) Time Altitude Azimuth Time Altitude Azimuth Time Altitude Azimuth
USA 238 DEB 3.7 19:56:10 10° SSW 20:02:42 81° SE 20:09:36 10° NE
USA 238 3.6 19:56:17 10° SSW 20:02:48 80° SE 20:09:42 10° NE
ATLAS CENTAUR R/B 3.8 20:01:49 10° N 20:04:25 16° NNE 20:07:04 10° ENE
SL-16 R/B 2.5 19:59:00 10° S 20:04:25 49° ESE 20:09:53 10° NE
Cosmos 2360 Rocket 3.3 20:02:00 10° SSE 20:06:22 24° ESE 20:10:45 10° NE
Cosmos 2322 Rocket 2.7 20:02:05 10° S 20:07:22 41° ESE 20:12:41 10° NE
Cosmos 1934 Rocket 4.4 20:02:09 10° NNW 20:08:12 67° W 20:14:17 10° S
Genesis I 3.2 20:06:42 10° SSW 20:10:28 59° ESE 20:14:22 10° NE
ARIANE 5 R/B 3.7 20:06:40 10° SE 20:10:37 32° ENE 20:14:36 10° N
Cosmos 2227 4.4 20:05:07 10° NNW 20:10:46 77° WSW 20:16:22 10° SSE
CZ-2C R/B 4.1 20:07:31 10° NNE 20:12:08 47° E 20:16:44 10° S
Meteor 1-21 4.2 20:08:51 10° S 20:14:30 73° E 20:20:07 10° NNE
CENTAUR R/B 2.6 20:08:39 10° SW 20:14:33 89° ESE 20:21:41 10° NE
Cosmos 676 Rocket 4.2 20:09:20 10° NNW 20:14:41 80° WSW 20:20:00 10° SSE
Cosmos 1470 2.8 20:11:22 10° N 20:15:22 87° WSW 20:19:20 10° S
Cosmos 1954 Rocket 4.2 20:10:21 10° NNW 20:15:41 76° WSW 20:20:59 10° SSE
Ariane Rocket 4.0 20:13:19 10° S 20:18:12 47° W 20:23:09 10° NNW
Cosmos 1315 Rocket 3.0 20:21:41 10° NNW 20:25:50 78° W 20:29:56 10° S
Cosmos 1674 3.6 20:22:36 10° SSE 20:25:53 30° E 20:29:10 10° NNE
Cosmos 1980 Rocket 3.9 20:20:41 10° WSW 20:25:55 38° NW 20:31:09 10° NNE
USA 81 4.1 20:21:49 10° N 20:27:06 72° E 20:32:21 10° SSE
Okean 1 Rocket 3.4 20:25:31 10° NNW 20:29:51 64° W 20:34:11 10° S
Cosmos 1455 Rocket 3.6 20:28:44 10° N 20:33:02 45° ENE 20:36:54 12° SSE
Cosmos 1727 Rocket 4.0 20:28:25 10° S 20:34:42 73° E 20:40:58 10° NNE
Meteor 2-20 Rocket 4.4 20:33:29 10° S 20:39:34 73° E 20:45:40 10° NNE
Cosmos 1726 3.2 20:38:27 10° NNW 20:41:53 41° W 20:45:18 10° SSW
BREEZE-M DEB (TANK) 2.6 20:40:25 10° SW 20:42:45 49° SE 20:47:14 10° ENE
Cosmos 1844 Rocket 3.1 20:37:14 10° NNW 20:42:48 53° ENE 20:47:39 14° SE
Cosmos 1758 3.6 20:40:12 10° NNW 20:44:09 64° W 20:48:04 10° S
Cosmos 2285 Rocket 4.3 20:38:09 10° SSW 20:44:35 73° WNW 20:51:03 10° NNE
Cosmos 292 Rocket 4.1 20:45:24 10° SSW 20:50:13 69° WNW 20:55:03 10° NNE
Cosmos 1802 Rocket 4.4 20:44:39 10° N 20:50:46 53° ENE 20:55:58 15° SSE
Cosmos 1908 3.4 20:47:43 10° N 20:51:33 57° ENE 20:54:25 17° SSE
Cosmos 1340 4.0 20:51:55 16° SE 20:53:44 23° E 20:56:44 10° NE
Lacrosse 5 rocket 2.0 20:51:03 10° S 20:54:09 26° SE 20:57:12 10° ENE
Cosmos 2263 Rocket 3.7 20:50:32 10° NW 20:55:27 31° WSW 21:00:20 10° SSW
SPOT 5 3.1 20:53:08 14° SSE 20:57:30 70° ENE 21:02:27 10° N
Cosmos 1707 4.0 20:56:09 10° SSW 20:59:49 41° WNW 21:03:32 10° N
Cosmos 405 4.4 20:57:25 10° NNE 21:00:20 25° ENE 21:02:06 17° ESE
Cosmos 1452 Rocket 3.7 20:56:37 10° SSW 21:01:54 77° WNW 21:07:12 10° NNE
In-Cosmos 22 4.4 21:02:20 10° SSW 21:07:35 67° WNW 21:12:52 10° N
Resurs 01 Rocket 3.7 21:05:56 10° SW 21:09:23 22° W 21:12:51 10° NW
Cosmos 1459 Rocket 3.9 21:03:24 10° N 21:09:29 86° E 21:14:34 15° S
Terra 2.0 21:06:08 18° SSE 21:09:36 64° ENE 21:14:19 10° N
SPOT 1/Viking Rocket 4.4 21:05:23 10° S 21:10:18 45° W 21:15:15 10° NNW
Cosmos 1850 Rocket 4.3 21:06:30 10° NNW 21:11:46 65° WSW 21:15:54 16° S
Cosmos 1953 2.5 21:08:03 10° NNW 21:12:07 74° W 21:15:11 17° S
Lacrosse 5 3.0 21:08:15 10° WNW 21:12:46 33° SW 21:16:06 16° S
Cosmos 2333 Rocket 2.8 21:09:00 16° SSE 21:13:02 37° ESE 21:18:16 10° NE
Cosmos 1025 Rocket 3.0 21:10:01 16° S 21:13:28 67° E 21:17:49 10° NNE
CARTOSAT-1 4.0 21:10:58 14° S 21:14:35 56° W 21:18:51 10° NNW
Cosmos 1000 Rocket 4.5 21:10:54 10° S 21:17:04 89° E 21:23:15 10° N
Geosat 4.4 21:15:06 17° S 21:18:53 57° WSW 21:23:51 10° NW
SL-14 R/B 3.7 21:17:35 22° SSE 21:19:52 48° E 21:23:46 10° NNE
FALCON 9 DEB 2.9 21:18:30 10° SW 21:21:55 76° SE 21:25:20 10° ENE
Spot 2 Rocket 4.2 21:17:52 12° S 21:22:19 49° W 21:27:15 10° NNW
Cosmos 1975 Rocket 3.8 21:19:11 10° SSW 21:23:25 52° WNW 21:27:43 10° N
ATLAS 3B R/B 2.9 21:18:38 10° S 21:24:49 47° ESE 21:31:12 10° NE
Cosmos 2061 Rocket 4.1 21:18:37 10° N 21:25:06 74° E 21:29:43 20° SSE
Cosmos 1844 3.6 21:20:59 10° NNW 21:26:35 90° WSW 21:30:18 22° SSE
Cosmos 1331 Rocket 4.0 21:22:38 10° SSW 21:27:52 84° ESE 21:33:10 10° NNE
Cosmos 2219 Rocket 2.7 21:24:39 19° SSE 21:28:13 41° ESE 21:33:31 10° NE
ERS-1 Rocket 3.3 21:24:38 17° S 21:28:29 63° WSW 21:33:30 10° NNW
Cosmos 1461 3.0 21:24:38 10° NW 21:28:51 65° WSW 21:30:58 26° SSE
Cosmos 1626 2.1 21:27:13 19° SSW 21:29:49 80° W 21:33:32 10° N
Cosmos 1864 Rocket 4.5 21:25:17 10° N 21:31:31 78° E 21:35:46 21° SSE
Meteor 1-24 Rocket 4.1 21:30:57 23° SSE 21:33:51 42° E 21:38:57 10° NNE
Aureole 1 Rocket 4.2 21:29:14 10° NNW 21:34:58 70° WSW 21:40:17 19° S
Meteor 2-10 Rocket 4.4 21:30:19 10° N 21:35:02 36° ENE 21:37:47 21° SE
SL-8 R/B 3.6 21:34:15 10° WNW 21:39:01 70° SSW 21:41:58 23° SE
BREEZE-M DEB (TANK) 2.7 21:36:26 10° WNW 21:39:03 31° SW 21:39:08 31° SW
Cosmos 2123 Rocket 4.0 21:34:03 16° S 21:39:11 83° E 21:45:33 10° N
BREEZE-M DEB (TANK) 1.8 21:37:53 10° SW 21:40:25 69° SSE 21:45:50 10° ENE
FALCON 9 DEB 4.5 21:44:47 21° E 21:44:47 21° E 21:46:09 10° ENE
Cosmos 2237 Rocket 3.8 21:42:21 16° ESE 21:43:33 17° E 21:47:00 10° ENE
ATLAS CENTAUR R/B 1.6 21:39:40 10° NNW 21:43:59 71° NE 21:46:25 27° SE
USA 215 3.3 21:38:32 10° ENE 21:44:55 53° SE 21:51:17 10° SSW
Cosmos 1302 Rocket 4.0 21:42:29 21° S 21:45:58 63° ESE 21:51:10 10° NNE
ARIANE 5 R/B 4.2 21:43:35 12° SSW 21:47:03 29° W 21:50:57 10° NW
Cosmos 1867 4.4 21:42:55 10° NNW 21:48:12 44° NE 21:52:15 16° ESE
SL-16 R/B 4.1 21:43:45 10° WSW 21:48:45 31° NW 21:53:47 10° NNE
Cosmos 2233 Rocket 4.0 21:43:12 10° N 21:49:20 68° E 21:53:01 25° SSE
Cosmos 2360 Rocket 2.8 21:44:22 10° SW 21:49:56 59° WNW 21:55:31 10° NNE
SL-24 R/B 4.3 21:46:01 10° N 21:50:55 85° E 21:53:44 25° S
Cosmos 2322 Rocket 3.7 21:46:13 10° WSW 21:51:27 37° NW 21:56:44 10° NNE
FALCON 9 DEB 4.4 21:53:44 24° E 21:53:44 24° E 21:55:16 10° ENE
Centaur D AC-29 4.0 21:39:01 10° W 21:56:09 21° SW 21:59:44 17° S
Cosmos 1455 3.7 21:58:16 10° NNE 22:01:27 24° ENE 22:02:38 21° E
Cosmos 389 Rocket 3.1 21:59:29 10° N 22:02:44 40° ENE 22:03:30 34° ESE
COSMOS 2428 2.7 22:01:02 23° S 22:04:37 65° ESE 22:10:20 10° NNE
H-2A R/B 4.1 22:02:37 10° N 22:06:37 52° WNW 22:09:25 18° SW
Cosmos 2322 3.7 22:02:41 14° SSW 22:07:37 86° WNW 22:13:19 10° NNE
Cosmos 1300 3.2 22:05:25 10° NNW 22:09:09 53° W 22:10:36 32° SSW
Cosmos 1606 Rocket 3.9 22:06:24 10° N 22:10:49 55° ENE 22:12:29 34° SE
ALOS 2 3.8 22:11:48 22° ESE 22:13:43 32° ENE 22:17:37 10° N
Cosmos 2278 Rocket 2.8 22:09:34 10° NNW 22:15:07 51° ENE 22:18:27 23° ESE
Cosmos 1486 Rocket 4.0 22:13:10 10° NNW 22:18:25 75° ENE 22:20:48 33° SSE
USA 267 3.5 22:12:28 10° ESE 22:18:54 68° NNE 22:25:25 10° NW
Cosmos 1346 Rocket 2.7 22:19:17 44° S 22:20:26 71° E 22:24:28 10° NNE
Cosmos 1844 Rocket 4.1 22:21:42 10° NW 22:26:21 27° WSW 22:29:19 17° SW
SL-4 R/B 4.1 22:30:03 13° E 22:30:03 13° E 22:30:34 10° E
Meteor 2-5 Rocket 4.2 22:24:44 19° SSW 22:28:42 56° WNW 22:34:13 10° N
Cosmos 1340 4.5 22:26:35 13° SW 22:29:11 26° WNW 22:32:26 10° NNW
Cosmos 968 Rocket 3.5 22:26:23 10° NNW 22:31:28 66° WSW 22:33:31 35° S
Lacrosse 5 rocket 2.1 22:29:34 10° WSW 22:33:04 45° NNW 22:36:32 10° NE
Cosmos 1464 Rocket 4.4 22:26:52 10° N 22:33:07 56° ENE 22:36:22 28° SE
Cosmos 1992 Rocket 3.9 22:32:39 34° S 22:34:52 70° ESE 22:40:05 10° NNE
GEOS 3 Rocket 3.8 22:36:02 34° SSE 22:38:17 64° SW 22:43:36 10° NW
Cosmos 1184 Rocket 3.7 22:38:30 36° E 22:38:30 36° E 22:41:22 10° NNE
Cosmos 1607 4.3 22:37:20 10° NNW 22:43:46 65° NE 22:47:53 23° SE
Meteor 2-1 Rocket 4.4 22:41:01 10° N 22:46:29 60° ENE 22:48:54 33° SE
Terra 4.0 22:45:01 11° SW 22:47:47 16° W 22:50:45 10° NW
Cosmos 1703 3.8 22:49:57 40° ESE 22:50:29 42° E 22:54:14 10° NNE
Cosmos 1980 3.8 22:50:46 36° S 22:53:00 63° ESE 22:58:38 10° NNE
Cosmos 1441 Rocket 3.8 22:52:52 40° ESE 22:53:16 42° E 22:56:55 10° NNE
FALCON 9 DEB 3.0 22:56:14 65° WNW 22:56:32 73° NNW 22:59:41 10° ENE
Cosmos 2333 Rocket 3.4 22:51:52 10° WSW 22:57:16 40° NW 23:02:40 10° NNE
Cosmos 1943 Rocket 3.9 22:54:37 10° N 22:59:12 26° NE 23:03:45 10° ESE
Cosmos 2228 4.0 22:55:54 10° NNW 22:59:58 37° W 23:01:23 29° SW
BREEZE-M DEB (TANK) 2.6 22:56:53 10° WSW 23:05:18 68° SSE 23:08:12 10° ENE
Cosmos 2034 Rocket 4.1 23:00:22 10° N 23:06:34 69° E 23:09:25 33° SSE
Okean 1-7 Rocket 3.6 23:06:13 48° SSE 23:07:20 70° E 23:11:48 10° NNE
Cosmos 2219 Rocket 3.5 23:07:01 10° WSW 23:12:14 36° NW 23:17:28 10° NNE
SAR-Lupe-2 3.5 23:11:42 10° NNE 23:15:17 68° ESE 23:15:31 65° SE
ATLAS 3B R/B 3.6 23:09:15 10° WSW 23:15:33 46° NW 23:22:06 10° NNE
Cosmos 1503 Rocket 4.2 23:12:14 10° NNW 23:17:33 61° WSW 23:19:20 40° SSW
FALCON 9 DEB 4.1 23:16:35 15° W 23:18:52 41° NNW 23:21:50 10° NE
FALCON 9 DEB 3.8 23:19:51 26° W 23:21:16 47° NNW 23:24:19 10° NE
SL-16 R/B 3.0 23:20:20 31° SE 23:21:54 36° ESE 23:27:02 10° NE
USA 32 4.4 23:16:53 10° N 23:22:04 56° E 23:24:07 34° SE
ATLAS CENTAUR R/B 3.5 23:19:42 10° WNW 23:22:26 16° WSW 23:22:33 16° WSW
Cosmos 2058 Rocket 3.4 23:20:09 10° NNW 23:24:29 53° W 23:25:34 42° SW
Cosmos 2237 Rocket 2.2 23:24:08 32° SW 23:26:53 79° WNW 23:32:32 10° NNE
Cosmos 1812 Rocket 4.2 23:22:41 10° N 23:26:54 47° ENE 23:28:14 35° SE
FALCON 9 DEB 4.3 23:25:34 14° W 23:27:59 38° NNW 23:30:56 10° NE
USA 215 3.8 23:21:36 10° NE 23:28:00 60° NNW 23:34:25 10° WSW
ATLAS CENTAUR R/B 3.4 23:25:37 34° SSW 23:28:18 68° SE 23:41:20 10° NE
Tsikada Rocket 4.1 23:28:42 35° SSE 23:31:23 68° E 23:37:31 10° NNE
Cosmos 1867 4.3 23:26:44 10° NW 23:31:43 36° WSW 23:32:53 33° SW
Thor Agena Rocket 3.5 23:29:21 10° NNE 23:34:38 74° ESE 23:36:27 41° S
GP-B 3.3 23:31:27 10° N 23:35:53 63° E 23:37:02 45° SSE
Cosmos 1455 3.6 23:33:46 10° NNW 23:36:59 26° W 23:37:30 25° WSW
Cosmos 2369 Rocket 4.0 23:32:58 10° N 23:37:53 28° NE 23:42:45 10° ESE
GRACE-FO 1 4.5 23:36:02 10° N 23:39:49 89° ESE 23:40:17 67° S
GRACE-FO 2 4.5 23:36:29 10° N 23:40:16 90° W 23:40:44 67° S
Meteor 1-4 Rocket 2.3 23:41:15 10° NNW 23:44:45 75° W 23:44:51 74° WSW
Cosmos 724 4.5 23:39:46 10° NNW 23:45:59 75° NE 23:50:00 22° SE
ALOS 2 3.8 23:49:12 26° WSW 23:50:03 28° W 23:53:50 10° NW
SJ 16-02 1.6 23:51:05 10° NNW 23:55:27 65° ENE 23:57:01 37° SE
